Location: St. Louis
(38.6270°N, 90.1994°W)
Time: 01:18:49
(UTC-06:00)

Vanguard 2 - Pass Details

Date: 07 December 2021
Orbit: 553 x 2936 km, 32.9° (Epoch: 16 January)

Event Time Altitude Azimuth Distance (km) Brightness Sun altitude
Rises 10:42:29 0° 213° (SSW) 2,795 11.0 26.5°
Reaches altitude 10° 10:45:46 10° 185° (S) 1,818 10.8 26.7°
Maximum altitude 10:47:45 13° 154° (SSE) 1,615 11.1 26.8°
Drops below altitude 10° 10:49:47 10° 123° (ESE) 1,872 10.4 27.0°
Sets 10:53:16 0° 96° (E) 2,954 10.8 27.1°
